| time (UTC) | temp C | wind direction | speed KPH | gust KPH | rain 1hr cm | rain 24hr cm | rain mn cm | humidity % | barometer mb |
| 20260504011526 | 15 | 178 | 3.2 | 8.0 | 0.00 | 0.05 | 0.05 | 69 | 1018.0 |
| 20260504010010 | 16 | 182 | 3.2 | 11.3 | 0.00 | 0.05 | 0.05 | 68 | 1017.8 |
| 20260504004521 | 16 | 159 | 1.6 | 6.4 | 0.00 | 0.05 | 0.05 | 68 | 1017.6 |
| 20260504003004 | 16 | 167 | 3.2 | 9.7 | 0.00 | 0.05 | 0.05 | 67 | 1017.4 |
| 20260504001505 | 16 | 182 | 3.2 | 8.0 | 0.00 | 0.05 | 0.05 | 70 | 1017.3 |
| 20260504000010 | 17 | 211 | 0.0 | 3.2 | 0.00 | 0.05 | 0.05 | 67 | 1017.0 |
| 20260503234532 | 18 | 211 | 0.0 | 1.6 | 0.00 | 0.05 | 0.05 | 60 | 1017.0 |
| 20260503233028 | 19 | 292 | 0.0 | 3.2 | 0.00 | 0.05 | 0.05 | 50 | 1016.9 |
| 20260503231531 | 19 | 295 | 0.0 | 3.2 | 0.00 | 0.05 | 0.05 | 54 | 1016.9 |
| 20260503230008 | 20 | 294 | 0.0 | 3.2 | 0.00 | 0.05 | 0.05 | 48 | 1017.0 |
| 20260503224511 | 20 | 192 | 1.6 | 8.0 | 0.00 | 0.05 | 0.05 | 44 | 1017.0 |
| 20260503223022 | 20 | 209 | 6.4 | 9.7 | 0.00 | 0.05 | 0.05 | 42 | 1017.0 |
| 20260503221519 | 21 | 342 | 4.8 | 9.7 | 0.00 | 0.05 | 0.05 | 41 | 1016.9 |
| 20260503220007 | 21 | 334 | 3.2 | 6.4 | 0.00 | 0.05 | 0.05 | 41 | 1016.8 |
| 20260503214510 | 21 | 10 | 4.8 | 8.0 | 0.00 | 0.05 | 0.05 | 42 | 1016.8 |
| 20260503213013 | 20 | 28 | 3.2 | 8.0 | 0.00 | 0.05 | 0.05 | 43 | 1016.9 |
| 20260503211522 | 20 | 236 | 3.2 | 11.3 | 0.00 | 0.05 | 0.05 | 45 | 1017.0 |
| 20260503210026 | 20 | 202 | 0.0 | 6.4 | 0.00 | 0.05 | 0.05 | 45 | 1017.1 |
| 20260503204508 | 20 | 206 | 1.6 | 9.7 | 0.00 | 0.05 | 0.05 | 44 | 1017.2 |
| 20260503203020 | 20 | 214 | 1.6 | 8.0 | 0.00 | 0.05 | 0.05 | 46 | 1017.4 |
| 20260503201523 | 20 | 193 | 6.4 | 14.5 | 0.00 | 0.05 | 0.05 | 45 | 1017.4 |
| 20260503200021 | 21 | 345 | 3.2 | 9.7 | 0.00 | 0.05 | 0.05 | 48 | 1017.6 |
| 20260503194528 | 20 | 80 | 0.0 | 11.3 | 0.00 | 0.05 | 0.05 | 45 | 1017.7 |
| 20260503193009 | 20 | 191 | 1.6 | 9.7 | 0.00 | 0.05 | 0.05 | 48 | 1018.2 |
| 20260503191514 | 21 | 15 | 3.2 | 9.7 | 0.00 | 0.08 | 0.05 | 46 | 1018.6 |
| 20260503190019 | 20 | 221 | 1.6 | 9.7 | 0.00 | 0.10 | 0.05 | 45 | 1018.8 |
| 20260503184530 | 20 | 173 | 1.6 | 11.3 | 0.00 | 0.10 | 0.05 | 46 | 1018.9 |
| 20260503183031 | 19 | 165 | 6.4 | 14.5 | 0.00 | 0.10 | 0.05 | 48 | 1019.2 |
| 20260503181512 | 20 | 235 | 1.6 | 8.0 | 0.00 | 0.10 | 0.05 | 47 | 1019.4 |
| 20260503180025 | 18 | 167 | 8.0 | 11.3 | 0.00 | 0.15 | 0.05 | 47 | 1019.5 |
| 20260503174524 | 19 | 238 | 3.2 | 14.5 | 0.00 | 0.15 | 0.05 | 48 | 1019.7 |
| 20260503173022 | 18 | 321 | 1.6 | 4.8 | 0.00 | 0.15 | 0.05 | 47 | 1019.7 |
| 20260503171529 | 18 | 327 | 1.6 | 9.7 | 0.00 | 0.15 | 0.05 | 49 | 1019.8 |
| 20260503081539 | 7 | 311 | 0.0 | 0.0 | 0.00 | 1.96 | 0.03 | 95 | 1017.1 |
| 20260503071543 | 8 | 311 | 0.0 | 1.6 | 0.00 | 2.16 | 0.03 | 95 | 1016.5 |
| 20260503054520 | 10 | 311 | 0.0 | 3.2 | 0.00 | 2.36 | 0.00 | 94 | 1016.5 |
| 20260503053003 | 10 | 311 | 0.0 | 3.2 | 0.00 | 2.36 | 0.00 | 94 | 1016.5 |
| 20260503051503 | 10 | 321 | 1.6 | 4.8 | 0.00 | 2.36 | 0.00 | 94 | 1016.5 |
| 20260503050006 | 10 | 319 | 0.0 | 3.2 | 0.00 | 2.36 | 0.00 | 94 | 1016.5 |
| 20260503044506 | 10 | 312 | 0.0 | 3.2 | 0.00 | 2.36 | 0.00 | 94 | 1016.2 |
| 20260503043016 | 11 | 352 | 0.0 | 3.2 | 0.00 | 2.36 | 0.00 | 94 | 1016.1 |
| 20260503041527 | 11 | 5 | 1.6 | 4.8 | 0.00 | 2.36 | 0.00 | 94 | 1015.7 |
| 20260503040005 | 11 | 261 | 1.6 | 6.4 | 0.00 | 2.36 | 0.00 | 94 | 1015.8 |
| 20260503034504 | 11 | 311 | 0.0 | 3.2 | 0.00 | 2.36 | 2.36 | 94 | 1015.7 |
| 20260503033008 | 11 | 288 | 1.6 | 4.8 | 0.00 | 2.36 | 2.36 | 94 | 1015.6 |
| 20260503031514 | 10 | 304 | 0.0 | 3.2 | 0.00 | 2.36 | 2.36 | 94 | 1015.4 |
| 20260503030021 | 10 | 284 | 0.0 | 3.2 | 0.00 | 2.36 | 2.36 | 94 | 1015.0 |
| 20260503024504 | 11 | 283 | 1.6 | 3.2 | 0.00 | 2.36 | 2.36 | 94 | 1014.7 |
| 20260503023010 | 11 | 292 | 0.0 | 3.2 | 0.00 | 2.36 | 2.36 | 94 | 1014.6 |
| 20260503021511 | 11 | 309 | 1.6 | 4.8 | 0.00 | 2.36 | 2.36 | 93 | 1014.3 |
| 20260503020021 | 11 | 309 | 0.0 | 3.2 | 0.00 | 2.36 | 2.36 | 93 | 1014.1 |
| 20260503014520 | 11 | 302 | 1.6 | 4.8 | 0.00 | 2.36 | 2.36 | 93 | 1014.1 |
| 20260503013010 | 11 | 298 | 1.6 | 6.4 | 0.00 | 2.39 | 2.36 | 92 | 1014.1 |